Content
SEND FEEDBACK

Daily
Averages
Monthly
Summary
United States of America

GRANT, OKLAHOMA


Home > North America > United States > Oklahoma
Elevation: 410 feet     Latitude: 33 53N     Longitude: 095 30W

WEATHER
 
SELECT A DAY
Number of Records: 53,424;   Date Range: 2/2/12 - 8/29/14
 
SHARE

PRINT THIS DATA

[ ← Previous Day ]
WEATHER ALMANAC - JANUARY 23, 2013
[ Next Day → ]
[ °C ]   °F
Weather ElementAverageHighLow
Temperature52.4 °F71.4 °F (3:35 pm)36.3 °F (5:35 am)
Dewpoint40.8 °F51.8 °F (5:35 pm)28.9 °F (4:55 am)
Humidity65.9 %81 % (10:35 pm)48 % (2:35 pm)
Barometer30.21 in30.29 in (10:15 am)30.13 in (4:35 pm)
Wind Speed5.4 mph10.4 mph (3:55 pm)
Weather ElementAverage
Visibility10 mi
Wind DirectionE (94.6 °)

Weather ElementTotal
Precipitation---
Heating Degree Days11.2 (Base 65)
Growing Degree Days3.9 (Base 50)
Averaged from 71 records on January 23, 2013
WEATHER CONDITIONS BREAKOUT
WIND DIRECTION BREAKOUT
WEATHER BY HOUR - JANUARY 23, 2013
[ °C ]   °F
Local TimeTemperatureDewpointHumidityBarometerVisibilityWind DirectionWind SpeedGust SpeedPrecipitationEventsConditions
12:35 AM38.7 °F29.5 °F70 %30.26 in10.0 miENE (70°)6.9 mphClear
12:55 AM39.0 °F30.2 °F71 %30.25 in10.0 miEast (80°)6.9 mphClear
1:15 AM38.5 °F30.2 °F72 %30.25 in10.0 miEast (90°)6.9 mphClear
1:35 AM38.3 °F29.8 °F72 %30.25 in10.0 miSE (140°)3.5 mphClear
1:55 AM38.3 °F29.3 °F70 %30.24 in10.0 miEast (100°)4.6 mphClear
2:15 AM37.9 °F29.5 °F72 %30.25 in10.0 miEast (90°)5.8 mphScattered Clouds
2:35 AM39.2 °F30.0 °F70 %30.25 in10.0 miEast (100°)4.6 mphOvercast
2:55 AM39.4 °F30.0 °F69 %30.26 in10.0 miEast (90°)6.9 mphOvercast
3:15 AM39.6 °F29.3 °F67 %30.26 in10.0 miEast (100°)6.9 mphMostly Cloudy
3:35 AM39.4 °F29.8 °F69 %30.25 in10.0 miSE (130°)5.8 mphMostly Cloudy
3:55 AM38.7 °F29.3 °F69 %30.25 in10.0 miESE (120°)4.6 mphScattered Clouds
4:15 AM38.3 °F29.1 °F70 %30.23 in10.0 miSE (130°)6.9 mphClear
4:35 AM37.9 °F29.1 °F71 %30.24 in10.0 miESE (120°)4.6 mphClear
4:55 AM37.6 °F28.9 °F71 %30.23 in10.0 miSE (130°)5.8 mphClear
5:15 AM37.4 °F29.1 °F72 %30.24 in10.0 miCalmClear
5:35 AM36.3 °F28.9 °F75 %30.25 in10.0 miCalmMostly Cloudy
5:55 AM36.5 °F28.9 °F74 %30.25 in10.0 miESE (110°)5.8 mphScattered Clouds
6:15 AM37.2 °F29.1 °F73 %30.26 in10.0 miCalmMostly Cloudy
6:35 AM36.9 °F29.3 °F74 %30.26 in10.0 miESE (110°)4.6 mphMostly Cloudy
6:55 AM36.7 °F29.1 °F74 %30.26 in10.0 miEast (80°)3.5 mphMostly Cloudy
7:15 AM36.9 °F29.5 °F75 %30.26 in10.0 miESE (110°)3.5 mphMostly Cloudy
7:35 AM36.7 °F29.5 °F75 %30.26 in10.0 miESE (120°)4.6 mphMostly Cloudy
7:55 AM36.7 °F29.7 °F76 %30.26 in10.0 miEast (90°)3.5 mphScattered Clouds
8:15 AM37.6 °F29.8 °F74 %30.26 in10.0 miEast (80°)3.5 mphClear
8:35 AM39.7 °F30.0 °F68 %30.26 in10.0 miEast (100°)8.1 mphClear
8:55 AM41.2 °F31.1 °F67 %30.27 in10.0 miESE (110°)5.8 mphMostly Cloudy
9:15 AM42.1 °F31.8 °F67 %30.28 in10.0 miEast (100°)4.6 mphOvercast
9:35 AM43.2 °F32.0 °F65 %30.28 in10.0 miEast (100°)4.6 mphOvercast
9:55 AM44.6 °F32.7 °F63 %30.28 in10.0 miESE (110°)3.5 mphOvercast
10:15 AM46.2 °F33.8 °F62 %30.29 in10.0 miSE (130°)4.6 mphOvercast
10:35 AM48.2 °F36.0 °F63 %30.28 in10.0 miESE (110°)5.8 mphOvercast
10:55 AM51.3 °F37.6 °F60 %30.28 in10.0 miESE (120°)4.6 mphMostly Cloudy
11:15 AM54.0 °F39.2 °F57 %30.28 in10.0 miSouth (170°)6.9 mphClear
11:35 AM56.5 °F41.0 °F56 %30.27 in10.0 miNorthClear
11:55 AM59.0 °F43.9 °F57 %30.26 in10.0 miSSW (200°)8.1 mphClear
12:15 PM60.6 °F45.3 °F57 %30.24 in10.0 miSSW (210°)9.2 mphMostly Cloudy
12:35 PM63.1 °F46.2 °F54 %30.22 in10.0 miNorthOvercast
12:55 PM64.4 °F46.8 °F53 %30.21 in10.0 miNorthOvercast
1:15 PM66.6 °F47.8 °F51 %30.20 in10.0 miNorthOvercast
1:35 PM65.7 °F48.4 °F54 %30.19 in10.0 miNorthOvercast
1:55 PM68.2 °F48.9 °F50 %30.18 in10.0 miSW (220°)4.6 mphMostly Cloudy
2:15 PM69.4 °F49.6 °F49 %30.17 in10.0 miSW (220°)4.6 mphClear
2:35 PM70.3 °F49.8 °F48 %30.17 in10.0 miSouth (180°)4.6 mphClear
2:55 PM70.5 °F50.0 °F48 %30.16 in10.0 miNorthClear
3:15 PM71.2 °F50.5 °F48 %30.15 in10.0 miNorthClear
3:35 PM71.4 °F50.7 °F48 %30.15 in10.0 miNorthClear
3:55 PM71.4 °F51.1 °F49 %30.14 in10.0 miSouth (190°)10.4 mphClear
4:15 PM70.9 °F51.1 °F49 %30.14 in10.0 miSSW (200°)10.4 mphScattered Clouds
4:35 PM70.2 °F51.3 °F51 %30.13 in10.0 miSouth (190°)10.4 mphClear
4:55 PM68.9 °F51.3 °F53 %30.14 in10.0 miSSW (210°)6.9 mphClear
5:15 PM68.5 °F51.6 °F55 %30.14 in10.0 miSSW (210°)6.9 mphClear
5:35 PM67.3 °F51.8 °F58 %30.14 in10.0 miSSW (200°)5.8 mphClear
5:55 PM65.7 °F51.4 °F60 %30.14 in10.0 miSouth (190°)5.8 mphClear
6:15 PM63.9 °F51.1 °F63 %30.14 in10.0 miSSE (150°)6.9 mphClear
6:35 PM62.6 °F51.1 °F66 %30.14 in10.0 miSE (140°)6.9 mphClear
6:55 PM62.1 °F51.3 °F68 %30.15 in10.0 miSSE (150°)5.8 mphClear
7:15 PM61.7 °F51.3 °F69 %30.15 in10.0 miSE (140°)5.8 mphClear
7:35 PM60.6 °F51.1 °F71 %30.15 in10.0 miNorthClear
7:55 PM60.4 °F51.1 °F71 %30.16 in10.0 miNorthClear
8:15 PM59.9 °F50.9 °F72 %30.16 in10.0 miNorthClear
8:35 PM59.5 °F50.9 °F73 %30.17 in10.0 miNorthClear
8:55 PM59.0 °F50.5 °F73 %30.16 in10.0 miNorthClear
9:15 PM57.9 °F50.2 °F75 %30.17 in10.0 miNorthClear
9:35 PM57.2 °F50.4 °F78 %30.17 in10.0 miNorthClear
9:55 PM57.2 °F50.2 °F77 %30.17 in10.0 miSSE (160°)3.5 mphClear
10:15 PM57.2 °F50.2 °F77 %30.17 in10.0 miNorthClear
10:35 PM55.4 °F49.8 °F81 %30.16 in10.0 miSSE (160°)5.8 mphClear
10:55 PM55.2 °F49.6 °F81 %30.16 in10.0 miNorthClear
11:15 PM56.3 °F50.0 °F79 %30.17 in10.0 miCalmClear
11:35 PM56.5 °F50.2 °F79 %30.17 in10.0 miSSE (160°)4.6 mphClear
11:55 PM56.3 °F50.0 °F79 %30.17 in10.0 miNorthClear
Hourly data recorded from KHHW, located miles away from Grant, Oklahoma







STORIES FROM OUR PARTNERS